| time (UTC) | temp F | wind direction | speed knots | gust knots | rain 1hr in | rain 24hr in | rain mn in | humidity % | barometer mb |
| 20260504231521 | 77 | 185 | 2.6 | 11.3 | 0.00 | 0.00 | 0.00 | 43 | 1005.0 |
| 20260504230522 | 78 | 180 | 3.5 | 11.3 | 0.00 | 0.00 | 0.00 | 41 | 1004.9 |
| 20260504225546 | 78 | 162 | 3.5 | 11.3 | 0.00 | 0.00 | 0.00 | 42 | 1004.8 |
| 20260504224516 | 79 | 174 | 3.5 | 9.6 | 0.00 | 0.00 | 0.00 | 41 | 1004.9 |
| 20260504223521 | 77 | 171 | 1.7 | 13.0 | 0.00 | 0.00 | 0.00 | 42 | 1005.1 |
| 20260504222522 | 78 | 185 | 2.6 | 13.0 | 0.00 | 0.00 | 0.00 | 40 | 1005.0 |
| 20260504221522 | 78 | 163 | 3.5 | 12.2 | 0.00 | 0.00 | 0.00 | 39 | 1005.0 |
| 20260504220522 | 78 | 157 | 2.6 | 14.8 | 0.00 | 0.00 | 0.00 | 40 | 1005.4 |
| 20260504215521 | 79 | 167 | 2.6 | 8.7 | 0.00 | 0.00 | 0.00 | 38 | 1005.5 |
| 20260504214521 | 79 | 172 | 2.6 | 10.4 | 0.00 | 0.00 | 0.00 | 39 | 1005.8 |
| 20260504213516 | 78 | 184 | 2.6 | 11.3 | 0.00 | 0.00 | 0.00 | 37 | 1005.8 |
| 20260504212542 | 78 | 188 | 4.3 | 13.0 | 0.00 | 0.00 | 0.00 | 37 | 1006.2 |
| 20260504211521 | 78 | 185 | 3.5 | 11.3 | 0.00 | 0.00 | 0.00 | 37 | 1006.5 |
| 20260504210521 | 80 | 217 | 5.2 | 9.6 | 0.00 | 0.00 | 0.00 | 36 | 1006.7 |
| 20260504205521 | 79 | 183 | 4.3 | 13.9 | 0.00 | 0.00 | 0.00 | 35 | 1006.8 |
| 20260504204521 | 81 | 185 | 5.2 | 13.0 | 0.00 | 0.00 | 0.00 | 34 | 1006.8 |
| 20260504203536 | 82 | 203 | 5.2 | 14.8 | 0.00 | 0.00 | 0.00 | 35 | 1006.6 |
| 20260504202517 | 81 | 192 | 7.0 | 17.4 | 0.00 | 0.00 | 0.00 | 35 | 1006.4 |
| 20260504201521 | 81 | 207 | 7.0 | 18.2 | 0.00 | 0.00 | 0.00 | 35 | 1006.4 |
| 20260504200522 | 80 | 183 | 7.0 | 19.1 | 0.00 | 0.00 | 0.00 | 35 | 1006.5 |
| 20260504195521 | 80 | 180 | 6.1 | 16.5 | 0.00 | 0.00 | 0.00 | 36 | 1006.4 |
| 20260504194520 | 80 | 172 | 4.3 | 16.5 | 0.00 | 0.00 | 0.00 | 37 | 1006.5 |
| 20260504193522 | 80 | 179 | 5.2 | 16.5 | 0.00 | 0.00 | 0.00 | 35 | 1006.6 |
| 20260504192516 | 81 | 214 | 6.1 | 14.8 | 0.00 | 0.00 | 0.00 | 36 | 1006.6 |
| 20260504191602 | 81 | 184 | 3.5 | 10.4 | 0.00 | 0.00 | 0.00 | 37 | 1006.6 |
| 20260504190521 | 82 | 223 | 7.8 | 16.5 | 0.00 | 0.00 | 0.00 | 35 | 1006.6 |
| 20260504184541 | 81 | 191 | 5.2 | 16.5 | 0.00 | 0.00 | 0.00 | 35 | 1006.7 |
| 20260504183521 | 81 | 205 | 7.0 | 16.5 | 0.00 | 0.00 | 0.00 | 35 | 1006.8 |
| 20260504182516 | 81 | 193 | 7.0 | 14.8 | 0.00 | 0.00 | 0.00 | 35 | 1007.0 |
| 20260504181516 | 80 | 194 | 6.1 | 17.4 | 0.00 | 0.00 | 0.00 | 36 | 1007.2 |
| 20260504180521 | 81 | 211 | 5.2 | 14.8 | 0.00 | 0.00 | 0.00 | 36 | 1007.1 |
| 20260504175521 | 80 | 188 | 6.1 | 14.8 | 0.00 | 0.00 | 0.00 | 36 | 1007.3 |
| 20260504174542 | 80 | 185 | 6.1 | 19.1 | 0.00 | 0.00 | 0.00 | 41 | 1007.4 |
| 20260504173602 | 79 | 174 | 5.2 | 12.2 | 0.00 | 0.00 | 0.00 | 40 | 1007.5 |
| 20260504172521 | 78 | 191 | 6.1 | 22.6 | 0.00 | 0.00 | 0.00 | 40 | 1007.8 |
| 20260504171516 | 77 | 194 | 6.1 | 13.9 | 0.00 | 0.00 | 0.00 | 41 | 1008.0 |
| 20260504170522 | 77 | 184 | 5.2 | 19.1 | 0.00 | 0.00 | 0.00 | 45 | 1008.2 |
| 20260504150516 | 71 | 197 | 3.5 | 10.4 | 0.00 | 0.00 | 0.00 | 57 | 1008.7 |
| 20260504140521 | 67 | 171 | 1.7 | 5.2 | 0.00 | 0.00 | 0.00 | 64 | 1009.9 |
| 20260504130521 | 62 | 170 | 0.0 | 2.6 | 0.00 | 0.00 | 0.00 | 72 | 1010.2 |
| 20260504110521 | 58 | 0.0 | 0.0 | 0.00 | 0.00 | 0.00 | 78 | 1009.7 | |
| 20260504100521 | 58 | 0.0 | 0.0 | 0.00 | 0.00 | 0.00 | 76 | 1009.9 | |
| 20260504081541 | 63 | 196 | 2.6 | 7.0 | 0.00 | 0.00 | 0.00 | 62 | 1009.4 |
| 20260504080521 | 63 | 187 | 3.5 | 9.6 | 0.00 | 0.00 | 0.00 | 62 | 1009.5 |
| 20260504050516 | 64 | 184 | 3.5 | 9.6 | 0.00 | 0.00 | 0.00 | 57 | 1010.0 |
| 20260504045522 | 64 | 179 | 4.3 | 10.4 | 0.00 | 0.00 | 0.00 | 57 | 1010.2 |
| 20260504044537 | 64 | 181 | 4.3 | 12.2 | 0.00 | 0.00 | 0.00 | 56 | 1010.5 |
| 20260504043522 | 64 | 183 | 3.5 | 9.6 | 0.00 | 0.00 | 0.00 | 57 | 1010.4 |
| 20260504042522 | 64 | 187 | 2.6 | 10.4 | 0.00 | 0.00 | 0.00 | 56 | 1010.5 |
| 20260504041522 | 64 | 180 | 2.6 | 8.7 | 0.00 | 0.00 | 0.00 | 56 | 1010.6 |
| 20260504040522 | 64 | 180 | 3.5 | 11.3 | 0.00 | 0.00 | 0.00 | 56 | 1010.7 |
| 20260504035522 | 64 | 166 | 2.6 | 10.4 | 0.00 | 0.00 | 0.00 | 55 | 1010.8 |
| 20260504034516 | 64 | 191 | 3.5 | 11.3 | 0.00 | 0.00 | 0.00 | 55 | 1010.8 |
| 20260504033517 | 63 | 187 | 1.7 | 7.0 | 0.00 | 0.00 | 0.00 | 55 | 1010.9 |
| 20260504032542 | 63 | 179 | 2.6 | 7.0 | 0.00 | 0.00 | 0.00 | 54 | 1011.0 |
| 20260504031522 | 63 | 177 | 0.9 | 5.2 | 0.00 | 0.00 | 0.00 | 55 | 1010.9 |
| 20260504030522 | 63 | 186 | 1.7 | 7.0 | 0.00 | 0.00 | 0.00 | 54 | 1011.1 |
| 20260504025522 | 63 | 206 | 0.9 | 7.0 | 0.00 | 0.00 | 0.00 | 54 | 1011.1 |
| 20260504024522 | 62 | 168 | 0.9 | 5.2 | 0.00 | 0.00 | 0.00 | 54 | 1011.1 |
| 20260504023517 | 62 | 163 | 0.0 | 1.7 | 0.00 | 0.00 | 0.00 | 55 | 1011.0 |
| 20260504022522 | 62 | 167 | 0.0 | 3.5 | 0.00 | 0.00 | 0.00 | 54 | 1011.1 |
| 20260504021522 | 62 | 201 | 0.0 | 2.6 | 0.00 | 0.00 | 0.00 | 55 | 1011.2 |
| 20260504020522 | 61 | 207 | 0.0 | 1.7 | 0.00 | 0.00 | 0.00 | 56 | 1011.1 |
| 20260504015522 | 61 | 207 | 0.0 | 1.7 | 0.00 | 0.00 | 0.00 | 56 | 1011.1 |
| 20260504014522 | 63 | 0.0 | 0.9 | 0.00 | 0.00 | 0.00 | 53 | 1011.1 | |
| 20260504013522 | 64 | 207 | 0.0 | 2.6 | 0.00 | 0.00 | 0.00 | 50 | 1011.1 |
| 20260504012537 | 64 | 186 | 0.9 | 5.2 | 0.00 | 0.00 | 0.00 | 48 | 1011.1 |
| 20260504011542 | 65 | 168 | 0.0 | 4.3 | 0.00 | 0.00 | 0.00 | 47 | 1011.1 |
| 20260504010522 | 66 | 165 | 0.9 | 4.3 | 0.00 | 0.00 | 0.00 | 45 | 1011.2 |
| 20260504005522 | 66 | 190 | 1.7 | 6.1 | 0.00 | 0.00 | 0.00 | 44 | 1011.2 |
| 20260504004522 | 66 | 167 | 1.7 | 8.7 | 0.00 | 0.00 | 0.00 | 44 | 1011.2 |
| 20260504003522 | 67 | 184 | 0.9 | 6.1 | 0.00 | 0.00 | 0.00 | 43 | 1011.1 |
| 20260504002516 | 68 | 190 | 1.7 | 8.7 | 0.00 | 0.00 | 0.00 | 42 | 1011.0 |
| 20260504001537 | 68 | 192 | 1.7 | 9.6 | 0.00 | 0.00 | 0.00 | 43 | 1011.0 |
| 20260504000522 | 68 | 171 | 3.5 | 9.6 | 0.00 | 0.00 | 0.00 | 41 | 1011.0 |
| 20260503235522 | 69 | 179 | 2.6 | 10.4 | 0.00 | 0.00 | 0.00 | 41 | 1011.0 |
| 20260503234523 | 69 | 176 | 3.5 | 11.3 | 0.00 | 0.00 | 0.00 | 40 | 1010.9 |
| 20260503233520 | 69 | 181 | 4.3 | 12.2 | 0.00 | 0.00 | 0.00 | 39 | 1011.1 |
| 20260503232542 | 70 | 192 | 3.5 | 8.7 | 0.00 | 0.00 | 0.00 | 38 | 1011.2 |